La Veta, CO

4:29 PM MDT on August 27, 2016 (GMT -0600)
La Veta Pass

Weather History for KVTP - October, 2013

Change the Weather History Date:

Friday, October 18, 2013

  Actual Average (KTAD) Record (KTAD)
Temperature  
Mean Temperature 27 °F 52 °F  
Max Temperature 33 °F 68 °F 84 °F (2003)
Min Temperature 21 °F 36 °F 22 °F (1989)
Degree Days  
Heating Degree Days 38 13  
Month to date heating degree days 189  
Since 1 July heating degree days 299  
Cooling Degree Days 0 0  
Month to date cooling degree days 0  
Year to date cooling degree days 716  
Moisture  
Dew Point 16 °F    
Average Humidity 67    
Maximum Humidity 93    
Minimum Humidity 40    
Precipitation  
Precipitation 0.00 in 0.03 in 0.23 in (1976)
Month to date precipitation 0.48  
Year to date precipitation 12.18  
Sea Level Pressure  
Sea Level Pressure 30.13 in    
Wind  
Wind Speed 5 mph (West)    
Max Wind Speed 15 mph    
Max Gust Speed 22 mph    
Visibility 8 miles    
Events Fog , Snow    
T = Trace of Precipitation, MM = Missing Value Source: NWS Daily Summary

Daily Weather History Graph

Daily Weather History Graph

Search for Another Location

Airport or City:

Trip Planner

Search our weather history database for the weather conditions in past years. The results will help you decide how hot, cold, wet, or windy it might be!

Date:

Astronomy

Oct. 18, 2013 Rise Set
Actual Time 7:11 AM MDT 6:18 PM MDT
Civil Twilight 6:45 AM MDT 6:45 PM MDT
Nautical Twilight 6:15 AM MDT 7:15 PM MDT
Astronomical Twilight 5:44 AM MDT 7:46 PM MDT
Moon 6:11 PM MDT (10/18) 6:50 AM MDT (10/18)
Length of Visible Light 11h 59m
Length of Day
11h 07m
Full, 100% of the Moon is Illuminated
Oct 18
Full
Oct 18
Full
Oct 26
Last Quarter
Nov 3
New
Nov 9
First Quarter

Hourly Weather History & Observations

Time (MDT) Temp. Windchill Dew Point Humidity Pressure Visibility Wind Dir Wind Speed Gust Speed Precip Events Conditions
12:14 AM 23.0 °F 17.0 °F 19.4 °F 86% 30.10 in 10.0 mi East 4.6 mph - N/A   Mostly Cloudy
12:34 AM 23.0 °F - 21.2 °F 93% 30.09 in 10.0 mi Calm Calm - N/A   Scattered Clouds
12:54 AM 23.0 °F 18.4 °F 21.2 °F 93% 30.08 in 10.0 mi South 3.5 mph - N/A   Scattered Clouds
1:14 AM 23.0 °F 15.8 °F 19.4 °F 86% 30.07 in 10.0 mi SSW 5.8 mph - N/A   Mostly Cloudy
1:33 AM 26.6 °F 22.6 °F 19.4 °F 74% 30.06 in 10.0 mi WNW 3.5 mph - N/A   Scattered Clouds
1:54 AM 26.6 °F - 19.4 °F 74% 30.06 in 10.0 mi Calm Calm - N/A   Clear
2:14 AM 26.6 °F 20.0 °F 19.4 °F 74% 30.06 in 10.0 mi West 5.8 mph - N/A   Mostly Cloudy
2:34 AM 28.4 °F 24.6 °F 19.4 °F 69% 30.06 in 10.0 mi West 3.5 mph - N/A   Overcast
2:54 AM 26.6 °F - 17.6 °F 69% 30.06 in 10.0 mi Calm Calm - N/A   Overcast
3:14 AM 26.6 °F 22.6 °F 17.6 °F 69% 30.05 in 10.0 mi West 3.5 mph - N/A   Overcast
3:34 AM 26.6 °F 22.6 °F 17.6 °F 69% 30.05 in 10.0 mi West 3.5 mph - N/A   Mostly Cloudy
3:53 AM 26.6 °F 21.2 °F 17.6 °F 69% 30.04 in 10.0 mi West 4.6 mph - N/A   Scattered Clouds
4:14 AM 24.8 °F 16.9 °F 17.6 °F 74% 30.04 in 10.0 mi West 6.9 mph - N/A   Clear
4:33 AM 23.0 °F 15.8 °F 17.6 °F 80% 30.04 in 10.0 mi West 5.8 mph - N/A   Scattered Clouds
4:53 AM 23.0 °F 14.7 °F 17.6 °F 80% 30.04 in 10.0 mi WNW 6.9 mph - N/A   Mostly Cloudy
5:14 AM 23.0 °F 14.7 °F 17.6 °F 80% 30.03 in 10.0 mi WSW 6.9 mph - N/A   Scattered Clouds
5:33 AM 24.8 °F 16.1 °F 17.6 °F 74% 30.03 in 10.0 mi West 8.1 mph - N/A   Scattered Clouds
5:54 AM 23.0 °F 13.9 °F 17.6 °F 80% 30.03 in 10.0 mi West 8.1 mph - N/A   Clear
6:14 AM 23.0 °F 17.0 °F 17.6 °F 80% 30.04 in 10.0 mi West 4.6 mph - N/A   Clear
6:34 AM 23.0 °F 13.1 °F 15.8 °F 74% 30.05 in 10.0 mi West 9.2 mph - N/A   Clear
6:53 AM 24.8 °F 19.1 °F 15.8 °F 69% 30.06 in 10.0 mi WNW 4.6 mph - N/A   Clear
7:13 AM 26.6 °F 17.5 °F 15.8 °F 64% 30.06 in 10.0 mi NW 9.2 mph 21.9 mph N/A   Clear
7:34 AM 26.6 °F 20.0 °F 14.0 °F 59% 30.07 in 10.0 mi West 5.8 mph - N/A   Clear
7:54 AM 28.4 °F 24.6 °F 14.0 °F 55% 30.08 in 10.0 mi NW 3.5 mph - N/A   Scattered Clouds
8:14 AM 28.4 °F 24.6 °F 15.8 °F 59% 30.09 in 10.0 mi WNW 3.5 mph - N/A   Mostly Cloudy
8:34 AM 28.4 °F - 15.8 °F 59% 30.10 in 10.0 mi Calm Calm - N/A   Mostly Cloudy
8:53 AM 30.2 °F - 17.6 °F 60% 30.11 in 10.0 mi Calm Calm - N/A   Mostly Cloudy
9:14 AM 24.8 °F 19.1 °F 21.2 °F 86% 30.12 in 0.2 mi NE 4.6 mph - N/A Fog Light Freezing Fog
9:34 AM 23.0 °F 15.8 °F 21.2 °F 93% 30.12 in 0.2 mi ENE 5.8 mph - N/A Fog Light Freezing Fog
9:54 AM 23.0 °F 13.9 °F 21.2 °F 93% 30.14 in 0.2 mi ENE 8.1 mph - N/A Snow Light Snow
10:12 AM 21.2 °F 10.1 °F 19.4 °F 93% 30.14 in 0.2 mi ENE 10.4 mph - N/A Snow Light Snow
10:34 AM 21.2 °F 14.9 °F 19.4 °F 93% 30.15 in 0.2 mi ENE 4.6 mph - N/A Snow Light Snow
10:54 AM 23.0 °F 13.1 °F 21.2 °F 93% 30.16 in 0.5 mi ENE 9.2 mph - N/A Snow Light Snow
11:14 AM 21.2 °F 8.9 °F 19.4 °F 93% 30.16 in 0.5 mi ENE 12.7 mph 16.1 mph N/A Snow Light Snow
11:34 AM 21.2 °F 12.6 °F 19.4 °F 93% 30.18 in 0.2 mi ENE 6.9 mph - N/A Snow Snow
11:53 AM 21.2 °F 10.9 °F 19.4 °F 93% 30.18 in 0.5 mi ENE 9.2 mph - N/A Snow Light Snow
12:13 PM 23.0 °F 13.9 °F 19.4 °F 86% 30.18 in 0.5 mi ENE 8.1 mph 17.3 mph N/A Snow Light Snow
12:34 PM 23.0 °F 13.9 °F 19.4 °F 86% 30.18 in 0.8 mi ENE 8.1 mph - N/A Snow Light Snow
12:54 PM 26.6 °F 20.0 °F 21.2 °F 80% 30.17 in 0.8 mi East 5.8 mph - N/A Snow Light Snow
1:14 PM 24.8 °F 17.9 °F 21.2 °F 86% 30.17 in 0.5 mi ENE 5.8 mph - N/A Fog Light Freezing Fog
1:34 PM 24.8 °F 19.1 °F 21.2 °F 86% 30.16 in 0.5 mi ENE 4.6 mph - N/A Snow Light Snow
1:53 PM 26.6 °F - 21.2 °F 80% 30.16 in 0.5 mi North - - N/A   Haze
2:14 PM 24.8 °F - 19.4 °F 80% 30.15 in 0.8 mi Calm Calm - N/A   Haze
2:33 PM 26.6 °F - 21.2 °F 80% 30.14 in 1.5 mi North - - N/A   Haze
2:54 PM 28.4 °F - 21.2 °F 74% 30.14 in 3.0 mi Calm Calm - N/A   Haze
3:14 PM 30.2 °F - 23.0 °F 75% 30.14 in 10.0 mi North - - N/A   Scattered Clouds
3:34 PM 32.0 °F - 23.0 °F 69% 30.14 in 10.0 mi North - - N/A   Clear
3:54 PM 33.8 °F - 23.0 °F 65% 30.14 in 10.0 mi North - - N/A   Clear
4:14 PM 32.0 °F - 19.4 °F 60% 30.14 in 10.0 mi North - - N/A   Clear
4:33 PM 33.8 °F - 17.6 °F 52% 30.14 in 10.0 mi North - - N/A   Clear
4:54 PM 32.0 °F 26.4 °F 14.0 °F 48% 30.14 in 10.0 mi West 5.8 mph - N/A   Clear
5:14 PM 32.0 °F 27.5 °F 14.0 °F 48% 30.15 in 10.0 mi WSW 4.6 mph - N/A   Clear
5:34 PM 32.0 °F 27.5 °F 12.2 °F 44% 30.16 in 10.0 mi West 4.6 mph - N/A   Clear
5:54 PM 30.2 °F 25.4 °F 12.2 °F 47% 30.16 in 10.0 mi West 4.6 mph - N/A   Clear
6:14 PM 30.2 °F 25.4 °F 8.6 °F 40% 30.16 in 10.0 mi WSW 4.6 mph - N/A   Clear
6:33 PM 28.4 °F 22.2 °F 8.6 °F 43% 30.17 in 10.0 mi West 5.8 mph - N/A   Clear
6:54 PM 28.4 °F 23.3 °F 8.6 °F 43% 30.18 in 10.0 mi West 4.6 mph - N/A   Clear
7:14 PM 28.4 °F 21.2 °F 8.6 °F 43% 30.18 in 10.0 mi WNW 6.9 mph - N/A   Clear
7:33 PM 26.6 °F 20.0 °F 8.6 °F 47% 30.18 in 10.0 mi WNW 5.8 mph - N/A   Clear
7:54 PM 28.4 °F 22.2 °F 8.6 °F 43% 30.19 in 10.0 mi West 5.8 mph - N/A   Clear
8:14 PM 28.4 °F 20.4 °F 8.6 °F 43% 30.19 in 10.0 mi WNW 8.1 mph - N/A   Clear
8:33 PM 26.6 °F 22.6 °F 8.6 °F 47% 30.20 in 10.0 mi SW 3.5 mph - N/A   Clear
8:54 PM 26.6 °F 18.2 °F 8.6 °F 47% 30.21 in 10.0 mi SW 8.1 mph - N/A   Clear
9:14 PM 26.6 °F 20.0 °F 8.6 °F 47% 30.20 in 10.0 mi SW 5.8 mph - N/A   Clear
9:33 PM 26.6 °F 19.1 °F 8.6 °F 47% 30.21 in 10.0 mi SW 6.9 mph - N/A   Clear
9:54 PM 26.6 °F 20.0 °F 8.6 °F 47% 30.22 in 10.0 mi SW 5.8 mph - N/A   Clear
10:13 PM 26.6 °F 19.1 °F 8.6 °F 47% 30.21 in 10.0 mi WSW 6.9 mph - N/A   Clear
10:34 PM 26.6 °F 16.8 °F 8.6 °F 47% 30.21 in 10.0 mi SW 10.4 mph 20.7 mph N/A   Clear
10:54 PM 26.6 °F 16.2 °F 6.8 °F 43% 30.22 in 10.0 mi SW 11.5 mph 18.4 mph N/A   Clear
11:13 PM 26.6 °F 14.7 °F 5.0 °F 40% 30.22 in 10.0 mi SW 15.0 mph 21.9 mph N/A   Clear
11:34 PM 26.6 °F 16.8 °F 6.8 °F 43% 30.21 in 10.0 mi SW 10.4 mph 20.7 mph N/A   Clear
11:54 PM 26.6 °F 16.2 °F 6.8 °F 43% 30.21 in 10.0 mi SW 11.5 mph 20.7 mph N/A   Clear